Lancaster, PA

6:05 PM EDT on May 26, 2018 (GMT -0400)
Lancaster

Weather History for KLNS - January, 2007

Change the Weather History Date:

Sunday, January 7, 2007

  Actual Average Record
Temperature  
Mean Temperature 44 °F -  
Max Temperature 50 °F 42 °F 64 °F (1998)
Min Temperature 37 °F 26 °F 0 °F (2014)
Degree Days  
Heating Degree Days 22    
Moisture  
Dew Point 36 °F    
Average Humidity 74    
Maximum Humidity 100    
Minimum Humidity 52    
Precipitation  
Precipitation 0.62 in - - ()
Sea Level Pressure  
Sea Level Pressure 30.16 in    
Wind  
Wind Speed 8 mph (ESE)    
Max Wind Speed 15 mph    
Max Gust Speed -    
Visibility 8 miles    
Events Rain    
Averages and records for this station are not official NWS values.
T = Trace of Precipitation, MM = Missing Value Source: NWS Daily Summary

Daily Weather History Graph

Daily Weather History Graph

Search for Another Location

Airport or City:

Astronomy

Jan. 07, 2007 Rise Set
Actual Time 7:27 AM EST 4:55 PM EST
Civil Twilight 6:57 AM EST 5:25 PM EST
Nautical Twilight 6:23 AM EST 5:59 PM EST
Astronomical Twilight 5:50 AM EST 6:32 PM EST
Moon 9:15 PM EST (1/7) 10:02 AM EST (1/7)
Length of Visible Light 10h 28m
Length of Day
9h 27m
Waning Gibbous, 83% of the Moon is Illuminated
Jan 7
Waning Gibbous
Jan 11
Last Quarter
Jan 18
New
Jan 25
First Quarter
Feb 2
Full

Hourly Weather History & Observations

Time (EST) Temp. Windchill Dew Point Humidity Pressure Visibility Wind Dir Wind Speed Gust Speed Precip Events Conditions
12:53 AM 50.0 °F - 34.0 °F 54% 30.14 in 10.0 mi NW 15.0 mph - N/A   Overcast
1:53 AM 46.0 °F 43.9 °F 33.1 °F 61% 30.18 in 10.0 mi NW 4.6 mph - N/A   Clear
2:53 AM 45.0 °F 41.2 °F 33.1 °F 63% 30.22 in 10.0 mi WNW 6.9 mph - N/A   Clear
3:53 AM 43.0 °F 38.8 °F 33.1 °F 68% 30.23 in 10.0 mi NW 6.9 mph - N/A   Clear
4:53 AM 43.0 °F 40.3 °F 30.9 °F 62% 30.25 in 10.0 mi NNW 4.6 mph - N/A   Clear
5:53 AM 41.0 °F - 30.9 °F 67% 30.28 in 10.0 mi Calm Calm - N/A   Clear
6:53 AM 37.9 °F 35.5 °F 30.0 °F 73% 30.31 in 10.0 mi West 3.5 mph - N/A   Clear
7:53 AM 37.9 °F 35.5 °F 30.0 °F 73% 30.34 in 10.0 mi West 3.5 mph - N/A   Clear
8:53 AM 43.0 °F - 32.0 °F 65% 30.35 in 10.0 mi Calm Calm - N/A   Clear
9:53 AM 44.1 °F 40.1 °F 30.9 °F 60% 30.35 in 10.0 mi NNE 6.9 mph - 0.00 in   Clear
10:53 AM 45.0 °F 42.6 °F 30.0 °F 56% 30.33 in 10.0 mi NNE 4.6 mph - N/A   Clear
11:53 AM 46.9 °F - 30.0 °F 52% 30.30 in 10.0 mi ESE 5.8 mph - N/A   Clear
12:53 PM 46.9 °F - 30.9 °F 54% 30.27 in 10.0 mi SSE 8.1 mph - N/A   Clear
1:53 PM 48.9 °F - 33.1 °F 54% 30.22 in 10.0 mi ESE 8.1 mph - N/A   Clear
2:53 PM 48.9 °F - 33.1 °F 54% 30.19 in 10.0 mi ESE 12.7 mph - N/A   Clear
3:53 PM 46.9 °F - 34.0 °F 61% 30.17 in 10.0 mi ESE 8.1 mph - N/A   Clear
4:53 PM 46.9 °F - 33.1 °F 59% 30.20 in 10.0 mi ESE 5.8 mph - N/A   Overcast
5:53 PM 46.0 °F 41.4 °F 36.0 °F 68% 30.18 in 10.0 mi ESE 9.2 mph - 0.00 in Rain Light Rain
6:53 PM 44.1 °F 37.1 °F 39.0 °F 82% 30.09 in 10.0 mi ESE 15.0 mph - 0.08 in Rain Light Rain
7:53 PM 43.0 °F 36.0 °F 39.9 °F 89% 30.07 in 4.0 mi ESE 13.8 mph - 0.12 in Rain Heavy Rain
8:43 PM 42.8 °F 36.2 °F 39.2 °F 87% 30.04 in 4.0 mi ESE 12.7 mph - 0.12 in Rain Rain
8:53 PM 42.1 °F 36.1 °F 39.9 °F 92% 30.06 in 4.0 mi ESE 10.4 mph - 0.15 in Rain Heavy Rain
9:31 PM 42.8 °F 37.0 °F 42.8 °F 100% 30.01 in 4.0 mi ESE 10.4 mph - 0.08 in Rain Heavy Rain
9:39 PM 42.8 °F 37.0 °F 42.8 °F 100% 30.00 in 4.0 mi ESE 10.4 mph - 0.10 in Rain Heavy Rain
9:42 PM 42.8 °F 37.5 °F 42.8 °F 100% 29.99 in 4.0 mi ESE 9.2 mph - 0.11 in Rain Heavy Rain
9:48 PM 42.8 °F 37.0 °F 42.8 °F 100% 29.99 in 4.0 mi ESE 10.4 mph - 0.13 in Rain Heavy Rain
9:53 PM 43.0 °F 37.2 °F 42.1 °F 97% 29.99 in 4.0 mi ESE 10.4 mph - 0.13 in Rain Heavy Rain
10:53 PM 44.1 °F 37.4 °F 42.1 °F 93% 29.91 in 4.0 mi East 13.8 mph - 0.12 in Rain Rain
11:53 PM 45.0 °F 39.7 °F 43.0 °F 93% 29.87 in 8.0 mi SE 10.4 mph - 0.02 in Rain Light Rain